Location: ?
(35.7076°N, 139.7914°E)
Time: 11:59:06
(UTC+00:00)

Daily predictions for brighter satellites

Satellite Brightness Start Highest point End
(mag) Time Altitude Azimuth Time Altitude Azimuth Time Altitude Azimuth
Cosmos 1933 3.3 12:01:21 10° N 12:05:24 76° W 12:05:24 76° W
Atlas Centaur 2 3.0 12:04:15 10° WSW 12:06:06 22° WSW 12:06:06 22° WSW
SPOT 1/Viking Rocket 3.9 12:08:09 41° SSW 12:09:46 60° W 12:14:55 10° NNW
Cosmos 1092 Rocket 4.4 12:05:19 19° SSW 12:09:53 62° W 12:16:08 10° N
Cosmos 371 Rocket 4.2 12:14:04 10° NW 12:18:32 39° WSW 12:19:30 35° SW
ARIANE 5 R/B 2.6 12:19:07 81° N 12:19:07 81° N 12:23:23 10° NNW
Meteor 2-21 4.3 12:22:09 63° SE 12:23:01 72° E 12:29:10 10° NNE
Cosmos 2026 Rocket 4.4 12:19:48 27° SSW 12:23:20 61° W 12:29:35 10° N
ATLAS 2A CENTAUR R/B 4.3 12:16:58 10° W 12:26:38 33° SSW 12:26:38 33° SSW
Cosmos 1766 Rocket 4.0 12:32:05 58° WNW 12:32:05 58° WNW 12:36:09 10° N
Terra 2.1 12:33:30 59° NNE 12:33:30 59° NNE 12:37:32 10° N
Cosmos 1782 3.8 12:29:02 10° NNW 12:32:06 46° NW 12:32:06 46° NW
SPOT 5 3.0 12:34:40 59° NNW 12:34:40 59° NNW 12:38:14 10° NNW
Cosmos 1151 Rocket 3.7 12:36:00 10° NNW 12:39:27 52° NW 12:39:27 52° NW
ERS-1 Rocket 3.1 12:40:36 69° W 12:40:36 69° W 12:45:26 10° NNW
Cosmos 2056 Rocket 4.1 12:35:59 10° N 12:40:31 47° NE 12:40:31 47° NE
Cosmos 2360 Rocket 3.0 12:36:22 10° N 12:41:22 40° NE 12:41:22 40° NE
Cosmos 1271 Rocket 4.4 12:38:17 10° NNW 12:41:17 31° WNW 12:41:17 31° WNW
Cosmos 1328 Rocket 4.4 12:39:06 10° N 12:42:23 49° N 12:42:23 49° N
Cosmos 1833 4.2 12:44:36 70° NE 12:44:36 70° NE 12:49:48 10° NNE
Cosmos 2333 Rocket 3.8 12:46:24 10° N 12:50:41 23° NE 12:50:41 23° NE
Meteor 2-16 Rocket 4.3 12:55:01 78° NE 12:55:01 78° NE 13:00:47 10° N
BREEZE-M DEB (TANK) 3.5 12:50:47 10° NW 12:55:06 90° SSW 12:56:29 64° SE
Cosmos 1371 Rocket 4.4 12:57:14 10° NNW 13:01:42 62° NNW 13:01:42 62° NNW
Cosmos 2266 Rocket 4.0 13:10:44 76° N 13:10:44 76° N 13:16:27 10° N
Cosmos 1553 Rocket 4.3 13:06:19 10° NNW 13:12:13 54° W 13:12:21 54° W
Cosmos 2322 Rocket 2.7 13:08:03 10° NNW 13:12:44 53° WNW 13:12:44 53° WNW
Cosmos 1655 Rocket 4.4 13:28:09 55° W 13:28:16 55° W 13:34:33 10° N
COSMOS 2455 3.3 13:33:43 58° N 13:33:43 58° N 13:38:38 10° NNE
Cosmos 2219 Rocket 3.3 13:30:29 10° N 13:34:28 37° NNE 13:34:28 37° NNE
SL-16 R/B 3.9 13:37:05 10° NW 13:40:36 23° W 13:40:36 23° W
USA 267 4.2 13:37:22 10° NNE 13:43:30 44° NW 13:49:37 10° WSW
COSMOS 2428 3.8 13:43:35 10° N 13:47:37 38° NNE 13:47:37 38° NNE
ATLAS 5 CENTAUR R/B 3.6 13:58:22 10° NNW 14:03:15 34° NE 14:03:15 34° NE
USA 234 3.8 14:13:25 48° NE 14:13:51 49° NE 14:20:06 10° NW
Cosmos 2360 Rocket 4.2 14:20:56 10° NW 14:23:07 19° WNW 14:23:07 19° WNW
Cosmos 2333 Rocket 3.8 14:29:55 10° NW 14:32:41 27° NW 14:32:41 27° NW
Cosmos 2297 Rocket 3.5 14:48:15 36° NNE 14:48:15 36° NNE 14:51:31 10° NNE
Cosmos 2237 Rocket 3.4 14:51:26 10° NNW 14:55:05 39° N 14:55:05 39° N
Cosmos 2227 Rocket 3.5 14:59:52 36° NNE 14:59:52 36° NNE 15:03:07 10° NNE
Lacrosse 5 3.8 15:06:08 27° NNE 15:06:08 27° NNE 15:08:38 10° NNE
Cosmos 2263 Rocket 4.4 15:18:08 16° ENE 15:18:08 16° ENE 15:20:06 10° ENE
SL-16 R/B 3.6 15:18:58 10° N 15:23:36 33° NE 15:23:36 33° NE
Resurs 1-4 Rocket 3.9 15:26:57 10° NE 15:29:52 25° ENE 15:29:52 25° ENE
ATLAS 5 CENTAUR R/B 4.1 15:42:40 10° NW 15:44:45 22° WNW 15:44:45 22° WNW
ADEOS II 3.7 15:58:35 10° NE 16:02:18 26° E 16:02:18 26° E
ATLAS CENTAUR R/B 4.1 16:06:46 14° NE 16:06:46 14° NE 16:07:28 10° NE
Cosmos 2074 Rocket 4.2 16:05:10 67° N 16:05:10 67° N 16:10:30 10° N
Cosmos 2344 3.6 16:05:08 61° ESE 16:05:11 61° ESE 16:12:29 10° NE
SL-16 R/B 3.0 16:05:55 50° E 16:06:26 51° ENE 16:12:23 10° N
Cosmos 1140 Rocket 4.4 16:15:49 46° NE 16:15:49 46° NE 16:19:40 10° NNE
NPP 4.2 16:12:25 10° NNE 16:16:46 55° NE 16:16:46 55° NE
CZ-2D R/B 2.6 16:19:23 10° NNE 16:23:48 60° N 16:23:48 60° N
Cosmos 2297 Rocket 4.5 16:30:02 12° WNW 16:30:39 12° NW 16:32:51 10° NNW
Helios 1B rocket 4.1 16:31:15 10° NNE 16:33:34 33° NNE 16:33:34 33° NNE
ADEOS Rocket 2.8 16:39:20 72° E 16:39:25 72° ENE 16:44:53 10° N
Iridium 4 Rocket 3.9 16:34:03 10° N 16:39:47 70° E 16:39:58 69° E
Cosmos 2227 Rocket 4.4 16:41:40 13° WNW 16:42:12 13° NW 16:44:48 10° NNW
IDEFIX/ARIANE 42P 3.5 16:40:47 10° NNE 16:45:34 37° E 16:46:02 36° ESE
SL-19 R/B 4.4 16:44:20 10° NNE 16:50:35 90° WSW 16:51:07 77° SSW
AQUA 4.4 16:46:23 10° N 16:50:06 52° NNW 16:50:06 52° NNW
Cosmos 2263 Rocket 2.5 16:59:49 52° WNW 16:59:49 52° WNW 17:05:18 10° N
Cosmos 1782 Rocket 4.1 17:03:06 52° ENE 17:03:06 52° ENE 17:07:03 10° NNE
Cosmos 2341 Rocket 3.9 17:01:49 63° S 17:02:52 83° E 17:09:07 10° N
Meteor 1-21 4.1 16:59:19 10° NNW 17:05:06 75° W 17:05:18 74° WSW
Cosmos 1674 4.2 17:03:01 10° NNE 17:06:28 31° E 17:06:42 31° E
Nadezhda 3 Rocket 4.0 17:00:37 10° NNW 17:06:52 61° W 17:07:12 61° WSW
Cosmos 2227 4.4 17:06:52 54° WNW 17:06:57 54° WNW 17:12:27 10° NNE
SL-16 R/B 3.8 17:03:11 10° NW 17:05:24 21° WNW 17:05:24 21° WNW
Resurs 1-4 Rocket 3.3 17:06:48 10° N 17:10:56 28° WNW 17:10:56 28° WNW
Cosmos 676 Rocket 3.9 17:11:28 80° WSW 17:11:42 83° WNW 17:17:04 10° NNE
CZ-4C R/B 3.0 17:06:12 10° NNW 17:13:55 85° WSW 17:22:34 10° SSE
In-Cosmos 22 4.2 17:08:08 10° N 17:13:55 83° E 17:15:23 52° SSE
Cosmos 962 Rocket 4.4 17:13:26 60° SW 17:14:22 69° W 17:20:44 10° N
IRS-1D 3.3 17:13:00 10° N 17:18:00 76° WNW 17:18:15 74° WSW
Meteor 1-12 Rocket 4.3 17:20:56 47° SSE 17:22:33 73° E 17:28:16 10° NNE
Cosmos 1300 Rocket 4.1 17:34:41 38° SE 17:35:57 53° E 17:40:12 10° NNE
CZ-3B R/B 4.2 17:33:47 30° WSW 17:40:37 49° S 17:48:05 10° ESE
DNEPR-1 R/B 4.4 17:38:58 36° S 17:40:59 57° ESE 17:45:46 10° NE
Meteor 1-28 Rocket 4.3 17:42:14 33° NW 17:42:14 33° NW 17:44:35 10° NNW
ADEOS II 3.0 17:38:02 10° N 17:42:37 32° WNW 17:43:13 31° W
ATLAS CENTAUR R/B 3.3 17:42:54 16° NW 17:42:56 16° NW 17:45:20 10° N
USA 290 3.5 17:40:30 10° N 17:43:34 39° ENE 17:45:08 23° SE
Cosmos 1943 3.1 17:37:56 10° NNW 17:43:37 69° WSW 17:46:45 27° S
Cosmos 1844 4.0 17:44:40 31° S 17:47:16 61° ESE 17:52:45 10° NNE
SL-16 R/B 3.8 17:51:01 21° W 17:51:01 21° W 17:54:51 10° NW
Cosmos 1975 Rocket 2.9 17:46:26 10° N 17:50:49 78° W 17:52:04 46° S
Cosmos 1400 Rocket 2.7 17:51:13 61° W 17:51:23 62° W 17:55:17 10° N
IKONOS-2 4.4 17:50:36 41° S 17:52:02 81° WSW 17:56:19 10° NNW
SL-08 R/B 4.3 17:48:17 10° SE 17:53:02 49° ENE 17:57:47 10° N
MSX 3.8 17:48:01 10° N 17:53:42 68° WNW 17:56:10 35° SW
Cosmos 1818 4.4 17:51:00 10° NNW 17:56:23 53° ENE 18:01:40 10° SE
Meteor 2-20 4.4 17:53:41 10° NNW 17:59:46 67° W 18:04:00 21° S
CZ-2D R/B 3.7 17:58:09 10° NNE 18:02:11 66° E 18:04:22 27° S
CZ-4B R/B 3.3 17:58:38 10° NNE 18:03:27 80° ESE 18:06:11 25° S
Cosmos 1315 Rocket 3.7 18:02:11 18° SSE 18:04:58 48° E 18:08:52 10° NNE
BREEZE-M DEB (TANK) 4.4 18:03:09 10° NW 18:05:50 28° NNE 18:08:42 10° E
Meteor 2-20 Rocket 4.4 17:59:54 10° N 18:06:05 83° W 18:12:13 10° S
Cosmos 1025 Rocket 3.0 18:03:16 10° N 18:07:37 87° E 18:11:09 15° S
Cosmos 44 4.3 18:03:45 10° NW 18:07:15 27° W 18:07:15 27° W
Cosmos 1844 Rocket 2.7 18:08:31 30° SW 18:11:20 65° WNW 18:16:59 10° NNE
IRS-1C 4.3 18:07:21 10° N 18:12:33 55° WNW 18:15:18 27° SW
Cosmos 468 Rocket 3.9 18:08:45 10° NNW 18:14:03 84° WSW 18:19:14 10° SSE
Cosmos 1805 4.1 18:13:57 30° W 18:14:20 31° WNW 18:17:50 10° NNW
Milstar 3 3.2 18:11:51 25° SW 18:15:24 43° S 18:21:41 10° ESE
CZ-3 R/B 4.2 17:53:47 23° SW 18:15:24 49° S 18:25:19 10° E
USA 215 3.6 18:10:10 10° NE 18:16:37 60° SE 18:21:31 18° SSW
Cosmos 1626 2.3 18:13:16 10° NNW 18:16:50 47° W 18:17:52 36° SW
Cosmos 1850 Rocket 4.2 18:14:22 28° SW 18:16:57 55° WNW 18:22:08 10° N
Meteor 1-15 Rocket 4.5 18:15:05 24° SSW 18:18:35 57° W 18:24:22 10° N
CZ-4C R/B 3.9 18:19:10 30° SW 18:20:36 40° W 18:24:39 10° NNW
CZ-2C R/B 3.6 18:17:16 10° NNE 18:20:54 47° E 18:24:34 10° S
Cosmos 1733 4.1 18:20:19 28° W 18:20:57 30° WNW 18:24:22 10° NNW
IDEFIX/ARIANE 42P 3.9 18:20:54 10° NNW 18:24:53 23° WNW 18:26:50 19° W
SL-24 R/B 4.4 18:20:06 10° SSE 18:25:31 87° W 18:30:13 10° NNW
Meteor 2-10 4.0 18:21:44 12° S 18:26:26 84° E 18:31:44 10° N
Cosmos 1340 4.2 18:24:17 10° NW 18:26:37 19° W 18:26:37 19° W
SL-24 R/B - RUBIN 2 4.2 18:28:01 10° NW 18:32:13 33° WSW 18:36:07 10° S
ARIANE 5 R/B 3.1 18:28:15 10° N 18:33:09 43° WNW 18:36:33 19° SW
Meteor 1-24 Rocket 4.0 18:28:27 10° N 18:34:20 76° E 18:39:58 10° SSE
X-37B 1.5 18:36:46 21° SSW 18:38:26 39° SE 18:41:27 10° ENE
CZ-2C R/B 2.2 18:34:47 10° N 18:39:21 68° WNW 18:43:43 12° SSW
SL-14 R/B 3.8 18:40:09 10° NNW 18:43:48 38° W 18:47:19 11° SSW
Cosmos 1346 Rocket 2.8 18:40:00 10° NNW 18:43:48 54° W 18:47:35 10° S
BREEZE M DEB (TANK) 2.5 18:40:01 16° SW 18:44:50 71° SE 18:47:32 10° ENE
Cosmos 841 Rocket 3.5 18:41:57 10° NNW 18:47:14 87° ENE 18:52:30 10° SSE
Cosmos 1934 Rocket 4.0 18:43:05 10° S 18:49:12 88° E 18:55:27 10° N
Cosmos 1470 2.8 18:46:15 11° SSW 18:49:58 59° W 18:53:50 10° N
Okean 2 Rocket 4.2 18:47:50 16° SW 18:50:35 28° WNW 18:54:30 10° NNW
Cosmos 1727 Rocket 4.5 18:45:27 10° NNW 18:51:12 40° W 18:56:58 10° SSW
Cosmos 1758 3.3 18:49:10 10° S 18:53:06 83° E 18:57:05 10° N
PAYLOAD A 4.5 18:48:52 10° N 18:54:02 48° WNW 18:59:01 10° SW
ALOS 2.2 18:49:39 10° N 18:54:19 77° WNW 18:58:58 10° SSW
Spot 4 Rocket 4.4 18:49:37 10° N 18:54:32 46° WNW 18:59:25 10° SW
ASTRO E2 4.0 18:55:31 14° WSW 18:57:47 22° SSW 19:00:55 10° SSE
Meteor 2-5 Rocket 4.0 18:52:57 10° NNW 18:58:37 52° W 19:04:10 10° SSW
Cosmos 1607 4.4 18:54:58 10° SSW 19:01:19 67° ESE 19:07:45 10° NE
CZ-4C R/B 4.3 18:57:07 10° WNW 19:01:55 17° WSW 19:06:57 10° SW
Cosmos 1763 Rocket 4.4 18:58:04 10° NW 19:02:30 28° W 19:06:53 10° SSW
Cosmos 1484 Rocket 2.8 19:02:15 10° N 19:06:15 87° W 19:10:14 10° SSW
USA 281 3.9 19:00:02 10° SE 19:06:28 62° ENE 19:12:56 10° NNW
Cosmos 1536 Rocket 4.1 19:03:15 10° NNW 19:07:18 38° W 19:11:23 10° SSW
Cosmos 1184 Rocket 3.0 19:05:28 10° NNW 19:08:33 46° W 19:11:36 10° S
Cosmos 1726 3.2 19:07:16 10° SW 19:10:24 27° WNW 19:13:35 10° NNW
Cosmos 921 Rocket 3.6 19:06:33 10° N 19:11:02 67° ENE 19:15:30 10° SSE
NOSS 3-4 (A) 4.1 19:04:35 10° NW 19:11:41 54° WSW 19:19:29 10° S
NOSS 3-4 (C) 4.1 19:04:41 10° NW 19:11:48 55° WSW 19:19:36 10° S
FALCON 9 DEB 4.0 19:11:02 10° SSW 19:13:48 35° SE 19:16:36 10° ENE
Cosmos 1441 Rocket 3.3 19:11:34 10° N 19:15:31 89° E 19:19:27 10° S
FALCON 9 DEB 3.7 19:15:20 10° WSW 19:18:38 46° NW 19:21:57 10° NE
Cosmos 1570 Rocket 4.0 19:13:58 10° NNW 19:19:19 77° WSW 19:24:39 10° S
METEOR-M 4.2 19:14:57 10° N 19:20:15 64° WNW 19:25:30 10° SSW
ATLAS 2AS CENTAUR R/B 2.8 19:14:10 10° NNW 19:21:19 88° SW 19:27:52 10° SSE
